FW4335 Weather Reports


Display with metric or nautical units.
time (UTC)temp
F
wind
direction
speed
MPH
gust
MPH
rain 1hr
in
rain 24hr
in
rain mn
in
humidity
%
barometer
mb
20260831204534 81 22 2.0 8.0 0.00 0.00 0.00 36 1012.8
20260831203143 81 8 2.0 7.0 0.00 0.00 0.00 36 1013.2
20260831201608 80 38 2.0 11.0 0.00 0.00 0.00 35 1013.6
20260831191537 78 31 2.0 7.0 0.00 0.00 0.00 39 1014.7
20260831190034 77 17 2.0 6.0 0.00 0.00 0.00 42 1014.9
20260831184531 75 358 1.0 5.0 0.00 0.00 0.00 45 1015.2
20260831181536 76 334 0.0 5.0 0.00 0.00 0.00 55 1015.8
20260831180148 72 303 0.0 3.0 0.00 0.00 0.00 60 1016.1
20260831174537 69 9 0.0 4.0 0.00 0.00 0.00 59 1016.2
20260831173036 69 28 1.0 4.0 0.00 0.00 0.00 59 1016.5
20260831171537 68 353 0.0 3.0 0.00 0.00 0.00 61 1016.6
20260831170036 67 26 0.0 2.0 0.00 0.00 0.00 61 1016.8
20260831164531 66 43 0.0 2.0 0.00 0.00 0.00 65 1017.0
20260831163035 64 19 0.0 2.0 0.00 0.00 0.00 69 1017.1
20260831161658 62 22 0.0 1.0 0.00 0.00 0.00 74 1017.3
20260831160031 60 47 0.0 1.0 0.00 0.00 0.00 77 1017.5
20260831153141 56 292 0.0 0.0 0.00 0.00 0.00 86 1017.7
20260831151535 54 240 0.0 0.0 0.00 0.00 0.00 93 1017.7
20260831150035 51 225 0.0 0.0 0.00 0.00 0.00 96 1017.6
20260831144534 47 225 0.0 0.0 0.00 0.00 0.00 96 1017.4
20260831143034 44 225 0.0 0.0 0.00 0.00 0.00 96 1017.3
20260831141643 43 225 0.0 0.0 0.00 0.00 0.00 96 1017.2
20260831133038 43 225 0.0 1.0 0.00 0.00 0.00 95 1017.1
20260831131611 43 225 0.0 0.0 0.00 0.00 0.00 95 1017.1
20260831124536 43 225 0.0 0.0 0.00 0.00 0.00 94 1017.0
20260831123033 44 225 0.0 0.0 0.00 0.00 0.00 94 1017.0
20260831121535 44 225 0.0 0.0 0.00 0.00 0.00 94 1017.0
20260831120144 44 225 0.0 0.0 0.00 0.00 0.00 94 1017.1
20260831114642 44 225 0.0 2.0 0.00 0.00 0.00 94 1017.1
20260831111535 45 225 0.0 0.0 0.00 0.00 0.00 93 1017.2
20260831110111 45 225 0.0 1.0 0.00 0.00 0.00 93 1017.2
20260831104536 45 225 0.0 1.0 0.00 0.00 0.00 93 1017.2
20260831103152 46 225 0.0 1.0 0.00 0.00 0.00 93 1017.2
20260831101534 46 225 0.0 0.0 0.00 0.00 0.00 92 1017.2
20260831094537 47 225 0.0 0.0 0.00 0.00 0.00 92 1017.5
20260831093035 47 225 0.0 1.0 0.00 0.00 0.00 91 1017.6
20260831091534 47 225 0.0 1.0 0.00 0.00 0.00 91 1017.7
20260831090034 47 225 0.0 0.0 0.00 0.00 0.00 91 1017.6
20260831084534 48 225 0.0 1.0 0.00 0.00 0.00 90 1017.7
20260831083037 48 225 0.0 0.0 0.00 0.00 0.00 89 1017.8
20260831080146 49 225 0.0 2.0 0.00 0.00 0.00 88 1018.0
20260831074533 49 225 0.0 0.0 0.00 0.00 0.00 88 1018.0
20260831073036 50 211 0.0 1.0 0.00 0.00 0.00 88 1018.1
20260831071650 50 180 0.0 0.0 0.00 0.00 0.00 87 1018.1
20260831070033 50 180 0.0 0.0 0.00 0.00 0.00 86 1018.2
20260831064533 51 180 0.0 0.0 0.00 0.00 0.00 86 1018.2
20260831063110 51 182 0.0 0.0 0.00 0.00 0.00 85 1018.3
20260831061532 51 202 0.0 0.0 0.00 0.00 0.00 85 1018.4
20260831060109 52 202 0.0 0.0 0.00 0.00 0.00 84 1018.4
20260831054607 52 202 0.0 0.0 0.00 0.00 0.00 83 1018.4
20260831053034 53 202 0.0 1.0 0.00 0.00 0.00 82 1018.5
20260831044532 55 202 0.0 2.0 0.00 0.00 0.00 78 1018.6
20260831043034 56 180 0.0 0.0 0.00 0.00 0.00 77 1018.5
20260831040034 58 213 0.0 2.0 0.00 0.00 0.00 73 1018.5
20260831033035 60 209 0.0 2.0 0.00 0.00 0.00 70 1018.1
20260831031536 62 213 0.0 3.0 0.00 0.00 0.00 67 1018.1
20260831030034 63 188 0.0 1.0 0.00 0.00 0.00 63 1017.9
20260831024537 64 295 0.0 2.0 0.00 0.00 0.00 61 1017.9
20260831023110 66 315 0.0 0.0 0.00 0.00 0.00 59 1017.9
20260831021532 68 289 0.0 2.0 0.00 0.00 0.00 54 1017.8
20260831020153 70 274 0.0 4.0 0.00 0.00 0.00 50 1017.7
20260831014535 72 282 0.0 5.0 0.00 0.00 0.00 48 1017.7
20260831010036 75 265 0.0 7.0 0.00 0.00 0.00 44 1018.0
20260831004536 76 326 0.0 4.0 0.00 0.00 0.00 44 1017.9
20260831003035 75 273 0.0 3.0 0.00 0.00 0.00 43 1018.0
20260831001534 75 282 1.0 8.0 0.00 0.00 0.00 43 1018.0
20260831000037 75 294 0.0 5.0 0.00 0.00 0.00 42 1018.0
20260830234537 75 289 0.0 7.0 0.00 0.00 0.00 42 1018.2
20260830233031 75 297 0.0 7.0 0.00 0.00 0.00 42 1018.4
20260830231533 76 302 0.0 7.0 0.00 0.00 0.00 41 1018.5
20260830230035 75 314 1.0 7.0 0.00 0.00 0.00 42 1018.7
20260830224538 76 328 0.0 3.0 0.00 0.00 0.00 43 1018.8
20260830223036 76 330 0.0 5.0 0.00 0.00 0.00 45 1019.0
20260830221535 75 348 0.0 5.0 0.00 0.00 0.00 46 1019.2
20260830214532 75 341 1.0 6.0 0.00 0.00 0.00 47 1019.7
20260830213032 75 343 0.0 5.0 0.00 0.00 0.00 47 1019.9
20260830211642 74 337 0.0 5.0 0.00 0.00 0.00 47 1020.0